FW9486 Weather Reports


Display with metric or nautical units.
time (UTC)temp
F
wind
direction
speed
MPH
gust
MPH
rain 1hr
in
rain 24hr
in
rain mn
in
humidity
%
barometer
mb
20260903180049 53 295 1.0 10.0 0.00 0.15 0.15 85 1010.1
20260903174542 53 319 5.0 11.0 0.01 0.15 0.15 85 1010.2
20260903173041 53 314 3.0 6.0 0.01 0.15 0.15 88 1010.1
20260903171551 51 292 2.0 8.0 0.01 0.15 0.15 90 1010.1
20260903170046 51 254 3.0 8.0 0.01 0.15 0.15 90 1010.3
20260903164546 50 316 1.0 4.0 0.00 0.14 0.14 91 1010.1
20260903163046 50 307 1.0 6.0 0.00 0.14 0.14 91 1010.1
20260903161546 50 272 1.0 3.0 0.00 0.14 0.14 92 1010.0
20260903160046 50 0 1.0 7.0 0.00 0.14 0.14 92 1010.0
20260903154542 49 309 3.0 9.0 0.00 0.15 0.14 93 1009.9
20260903153051 49 242 1.0 4.0 0.01 0.15 0.14 94 1009.8
20260903151551 48 304 1.0 3.0 0.02 0.15 0.14 94 1009.7
20260903150105 48 0 0.0 1.0 0.03 0.15 0.14 94 1009.5
20260903144547 48 0 0.0 0.0 0.04 0.16 0.14 94 1009.5
20260903143042 48 0 0.0 1.0 0.04 0.15 0.13 94 1009.5
20260903141548 48 0 0.0 3.0 0.05 0.14 0.12 93 1009.5
20260903140047 48 0 0.0 0.0 0.07 0.13 0.11 93 1009.3
20260903134559 48 326 0.0 3.0 0.07 0.19 0.10 93 1009.1
20260903133056 48 315 2.0 4.0 0.06 0.18 0.09 92 1008.9
20260903131549 48 321 1.0 4.0 0.04 0.16 0.07 91 1008.5
20260903130043 49 0 0.0 1.0 0.01 0.13 0.04 89 1008.5
20260903124555 49 0 0.0 1.0 0.00 0.13 0.03 88 1008.5
20260903123051 49 0 0.0 0.0 0.00 0.13 0.03 86 1008.4
20260903121544 50 322 0.0 3.0 0.00 0.13 0.03 84 1008.6
20260903120048 50 0 0.0 6.0 0.00 0.13 0.03 83 1008.7
20260903114549 50 299 3.0 7.0 0.00 0.13 0.03 82 1008.6
20260903113052 49 309 2.0 4.0 0.00 0.13 0.03 85 1008.8
20260903111546 50 0 0.0 4.0 0.00 0.13 0.03 84 1008.9
20260903110043 49 309 2.0 4.0 0.00 0.13 0.03 84 1008.9
20260903104549 49 0 1.0 5.0 0.00 0.13 0.03 84 1008.9
20260903103043 50 283 2.0 7.0 0.00 0.13 0.03 83 1009.0
20260903101541 49 309 0.0 7.0 0.00 0.13 0.03 84 1008.8
20260903100049 49 275 1.0 7.0 0.01 0.13 0.03 86 1009.0
20260903094557 49 0 1.0 3.0 0.01 0.13 0.03 87 1009.2
20260903093047 49 15 0.0 2.0 0.02 0.13 0.03 89 1009.1
20260903091551 49 318 1.0 4.0 0.03 0.13 0.03 89 1009.1
20260903090054 49 311 2.0 5.0 0.02 0.12 0.02 88 1009.0
20260903084548 49 279 2.0 8.0 0.02 0.12 0.02 86 1009.1
20260903083044 50 282 3.0 8.0 0.01 0.11 0.01 83 1009.1
20260903081542 51 289 3.0 8.0 0.00 0.10 0.00 79 1009.2
20260903080051 52 274 3.0 7.0 0.00 0.10 0.00 76 1009.1
20260903074546 54 264 7.0 12.0 0.00 0.10 0.00 67 1009.0
20260903073041 54 233 7.0 11.0 0.00 0.10 0.00 63 1008.8
20260903071549 55 288 6.0 14.0 0.00 0.10 0.00 62 1008.8
20260903070047 55 164 4.0 11.0 0.00 0.10 0.00 61 1008.6
20260903064541 55 210 4.0 14.0 0.00 0.10 0.00 60 1008.7
20260903063105 56 314 4.0 11.0 0.00 0.10 0.00 58 1008.6
20260903061553 56 155 3.0 7.0 0.00 0.10 0.00 57 1008.6
20260903060049 56 221 4.0 10.0 0.00 0.10 0.00 57 1008.4
20260903054543 56 234 2.0 8.0 0.00 0.10 0.10 56 1008.5
20260903053110 56 72 1.0 8.0 0.00 0.10 0.10 57 1008.6
20260903051549 56 270 3.0 9.0 0.00 0.10 0.10 56 1008.6
20260903050052 57 133 2.0 9.0 0.00 0.10 0.10 53 1008.5
20260903044559 59 238 3.0 17.0 0.00 0.10 0.10 48 1008.7
20260903043103 60 259 7.0 14.0 0.00 0.10 0.10 44 1008.5
20260903041550 61 289 4.0 13.0 0.00 0.10 0.10 41 1008.2
20260903040040 61 277 2.0 5.0 0.00 0.10 0.10 39 1007.7
20260903034547 62 300 2.0 7.0 0.00 0.10 0.10 38 1007.5
20260903033046 62 272 1.0 7.0 0.00 0.10 0.10 38 1007.3
20260903031544 63 271 3.0 12.0 0.00 0.10 0.10 37 1007.2
20260903030042 63 186 6.0 15.0 0.00 0.10 0.10 36 1007.1
20260903024548 64 233 5.0 13.0 0.00 0.10 0.10 33 1007.0
20260903023047 64 269 4.0 13.0 0.00 0.10 0.10 33 1006.9
20260903021552 64 283 3.0 9.0 0.00 0.10 0.10 34 1006.9
20260903020041 65 296 4.0 11.0 0.00 0.10 0.10 34 1007.0
20260903014553 65 307 8.0 20.0 0.00 0.10 0.10 34 1007.2
20260903013045 65 234 6.0 12.0 0.00 0.10 0.10 34 1007.2
20260903011551 65 277 7.0 12.0 0.00 0.10 0.10 34 1007.3
20260903010049 66 300 3.0 11.0 0.00 0.10 0.10 34 1007.3
20260903004547 66 280 6.0 14.0 0.00 0.10 0.10 33 1007.2
20260903003043 67 151 6.0 14.0 0.00 0.10 0.10 32 1007.4
20260903001542 67 226 7.0 16.0 0.00 0.10 0.10 33 1007.6
20260903000053 68 294 4.0 15.0 0.00 0.10 0.10 33 1007.4
20260902234547 67 341 6.0 13.0 0.00 0.10 0.10 33 1007.6
20260902233047 67 179 9.0 23.0 0.00 0.10 0.10 32 1007.6
20260902231544 67 229 10.0 23.0 0.00 0.10 0.10 33 1007.7
20260902230041 66 231 6.0 17.0 0.00 0.10 0.10 33 1007.7
20260902224546 68 240 10.0 21.0 0.00 0.10 0.10 30 1007.8
20260902223043 68 214 5.0 24.0 0.00 0.10 0.10 31 1007.9
20260902221549 68 255 7.0 17.0 0.00 0.10 0.10 29 1007.9
20260902220054 67 191 5.0 16.0 0.00 0.10 0.10 30 1008.1
20260902214542 66 199 8.0 19.0 0.00 0.10 0.10 31 1008.3
20260902213039 67 286 8.0 18.0 0.00 0.10 0.10 31 1008.3
20260902211600 68 306 8.0 19.0 0.00 0.10 0.10 30 1008.1
20260902210108 69 240 6.0 22.0 0.00 0.10 0.10 27 1008.1
20260902204544 69 236 10.0 24.0 0.00 0.10 0.10 24 1008.7
20260902203039 68 328 8.0 19.0 0.00 0.10 0.10 24 1008.2
20260902201555 69 195 6.0 23.0 0.00 0.10 0.10 24 1008.1
20260902200049 68 274 8.0 17.0 0.00 0.10 0.10 27 1008.3
20260902194550 68 315 4.0 18.0 0.00 0.10 0.10 28 1008.0
20260902193048 68 272 2.0 14.0 0.00 0.10 0.10 32 1008.2
20260902191546 67 269 8.0 21.0 0.00 0.10 0.10 30 1008.3
20260902190044 67 264 7.0 16.0 0.00 0.10 0.10 29 1008.6
20260902184605 66 219 10.0 19.0 0.00 0.10 0.10 27 1008.5
20260902183048 65 317 6.0 13.0 0.00 0.10 0.10 34 1008.3
20260902181554 63 0 1.0 7.0 0.00 0.10 0.10 64 1008.3